[[{"header":{"parameterUnit":"m.s-1","parameterCategory":1,"la1":30.2991,"la2":30.254,"lo1":-89.0895,"lo2":-89.0444,"dy":0.0017,"dx":0.0017,"nx":28,"ny":28,"refTime":"2024-07-15T03:00:00:Z","depth":0,"parameterNumber":2,"parameterNumberName":"U-component_of_WINDS"},"data":[0,0,0,0,0,0,0,0,0,0,0,0,0,0,0,0,0,0,0,0,0,0,0,0,0,0,0,0,0,0,0,0,0,0,0,0,0,0,0,0,0,0,0,0,0,0,0,0,0,0,0,0,0,0,0,0,0,0,3.2895,3.2895,0,3.2918,3.2919,3.2919,3.2835,3.2832,3.283,3.2827,3.2854,3.2857,3.286,0,0,0,0,0,0,0,0,0,0,0,0,0,3.2776,3.2779,3.2894,3.2895,3.2895,3.2918,3.2919,3.2919,3.2835,3.2832,3.2829,3.2826,3.2853,3.2857,3.2861,0,0,0,0,0,0,0,0,0,0,0,0,0,3.2817,3.278,3.2894,3.2856,3.2853,3.2918,3.2919,3.2919,3.2836,3.2832,3.2828,3.2825,3.2852,3.2857,3.2861,3.2965,0,0,3.2875,3.2877,0,0,0,0,0,0,0,0,3.2815,3.2821,3.2861,3.2859,3.2855,3.287,3.2887,3.2935,3.2837,3.2843,3.2827,3.2823,3.2863,3.2866,3.2879,3.2967,3.2968,3.2876,3.2878,3.288,3.2882,0,0,0,0,0,0,0,3.2812,3.282,3.2904,3.2862,3.2858,3.2838,3.2839,3.2895,3.2874,3.2842,3.2836,3.2839,3.286,3.2875,3.2879,3.2968,3.2875,3.2879,3.2882,3.2884,3.3138,3.3142,0,0,0,0,0,0,3.2814,3.2818,3.2903,3.2905,3.2825,3.2843,3.2845,3.2869,3.2873,3.287,3.2843,3.2835,3.2869,3.2874,3.288,3.2999,3.288,3.2885,3.2887,3.3134,3.3139,3.3143,0,0,0,0,0,0,3.2812,3.2822,3.2902,3.286,3.2868,3.2849,3.2877,3.2871,3.2886,3.2873,3.2869,3.2862,3.2866,3.2873,3.2943,3.2998,3.2887,3.2891,3.3129,3.3136,3.3141,3.324,0,0,0,0,0,0,3.2809,3.2822,3.2862,3.2861,3.2871,3.2966,3.288,3.2875,3.2894,3.2884,3.289,3.2887,3.2864,3.2937,3.2948,3.3003,3.2894,3.3124,3.3132,3.3139,3.3231,3.3248,3.3263,0,0,0,0,0,3.2805,3.289,3.2864,3.2875,3.292,3.297,3.2975,3.2945,3.2899,3.2938,3.2929,3.2887,3.2991,3.2945,3.2957,3.3014,3.3121,3.313,3.3139,3.3224,3.3245,3.3262,0,0,0,0,0,0,3.29,3.2889,3.2861,3.2948,3.296,3.2955,3.3004,3.2969,3.2995,3.2985,3.2948,3.295,3.3026,3.3027,3.2976,3.3113,3.3048,3.306,3.3109,3.3128,3.3144,3.3141,3.2898,0,0,0,0,0,3.293,3.2971,3.296,3.3039,3.3046,3.3024,3.3045,3.302,3.3032,3.3036,3.3033,3.3046,3.3081,3.3105,3.3137,3.3232,3.323,3.3276,3.3292,3.3305,3.3315,3.3361,3.3381,3.3173,3.3173,3.3172,0,0,3.2995,3.2994,3.3023,3.3057,3.3064,3.3106,3.3029,3.3078,3.3109,3.3044,3.3109,3.3107,3.3119,3.3201,3.3237,3.3204,3.3372,3.3316,3.3327,3.333,3.3373,3.3392,3.341,3.3179,3.3178,3.3177,0,0,3.3133,3.3139,3.3202,3.3209,3.3219,3.3203,3.3219,3.3219,3.3214,3.3279,3.323,3.3266,3.3329,3.3337,3.335,3.3489,3.345,3.3501,3.3582,3.3628,3.3644,3.3658,3.3705,3.3722,3.3511,3.3512,3.3512,0,3.3213,3.3274,3.324,3.329,3.3306,3.3248,3.3311,3.332,3.3341,3.3353,3.3316,3.339,3.3394,3.3475,3.3508,3.3522,3.3537,3.3499,3.3644,3.3658,3.3671,3.3715,3.3733,3.3517,3.3517,3.3516,3.3516,0,3.3369,3.3412,3.3463,3.3481,3.3502,3.356,3.3533,3.3559,3.3533,3.3521,3.3586,3.3588,3.3618,3.3636,3.3612,3.3713,3.3692,3.3651,3.3584,3.3697,3.3738,3.3755,3.3526,3.3524,3.3522,3.352,0,0,3.3569,3.3565,3.3584,3.3589,3.3595,3.3627,3.3681,3.3709,3.373,3.3746,3.3789,3.3841,3.3802,3.3816,3.3792,3.3833,3.3938,3.3786,3.3785,3.3812,3.4047,3.4076,3.4096,3.3913,3.3916,3.3919,3.4044,0,3.3702,3.3792,3.3761,3.3853,3.389,3.3835,3.3881,3.3889,3.3879,3.391,3.3899,3.3935,3.3882,3.389,3.3928,3.3918,3.3985,3.3909,3.3951,3.3953,3.3947,3.4118,3.4149,3.4268,3.406,3.4063,3.4065,0,3.387,3.3889,3.3984,3.3979,3.3993,3.4036,3.4056,3.4087,3.4094,3.4083,3.4098,3.4065,3.4116,3.4051,3.412,3.4069,3.4085,3.4082,3.4086,3.4087,3.4014,3.4121,3.4305,3.4322,3.409,3.4088,3.4087,0,3.4001,3.4052,3.4113,3.4121,3.4118,3.4148,3.4148,3.4152,3.4169,3.4188,3.4198,3.4224,3.4237,3.4257,3.4231,3.4186,3.4303,3.4236,3.4294,3.4295,3.4319,3.4318,3.4507,3.4334,3.4334,3.4334,3.4333,0,3.4152,3.4211,3.4172,3.421,3.4274,3.4238,3.4303,3.4297,3.43,3.4335,3.429,3.4324,3.4288,3.4319,3.4299,3.4358,3.4365,3.4357,3.4351,3.436,3.436,3.4368,3.4358,3.4338,3.4337,3.4337,3.4336,0,3.4309,3.4286,3.4349,3.434,3.4339,3.4386,3.4378,3.4412,3.4398,3.4443,3.4452,3.443,3.4464,3.444,3.4474,3.4461,3.4536,3.452,3.4533,3.4528,3.4586,3.4579,3.4784,3.4808,3.4623,3.4625,3.4626,0,3.4406,3.4449,3.4444,3.4463,3.4466,3.4499,3.4515,3.4481,3.45,3.4509,3.4542,3.4571,3.4593,3.4649,3.4636,3.4661,3.4643,3.4713,3.4647,3.4653,3.4641,3.4637,3.464,3.4726,3.4728,3.473,3.4731,0,3.4578,3.4563,3.4588,3.4608,3.4628,3.4643,3.4655,3.4673,3.4639,3.4662,3.4695,3.4711,3.4744,3.4773,3.4793,3.4793,3.4756,3.4752,3.4766,3.4775,3.478,3.4775,3.4567,3.4748,3.4746,3.4745,3.4744,3.4743,3.4706,3.474,3.4741,3.4769,3.4773,3.4784,3.4814,3.4803,3.4829,3.4852,3.4831,3.4869,3.4873,3.4895,3.49,3.4929,3.49,3.4922,3.4927,3.4932,3.4938,3.4777,3.4933,3.4933,3.4932,3.4932,3.4931,0,3.4873,3.4869,3.4896,3.4911,3.4933,3.4895,3.4905,3.4926,3.4959,3.4965,3.4986,3.5022,3.5049,3.5038,3.5062,3.5087,3.507,3.5094,3.5091,3.5091,3.4964,3.4948,3.5107,3.5107,3.5107,3.5107,3.5107,3.5107,3.4962,3.5017,3.5002,3.5059,3.5055,3.5091,3.5099,3.5108,3.5112,3.5154,3.5175,3.5167,3.5166,3.5188,3.5211,3.5207,3.5216,3.5246,3.5235,3.5117,3.51,3.5083,3.5068,3.5249,3.5249,3.5358,3.5359,3.536]},{"header":{"parameterUnit":"m.s-1","parameterCategory":1,"la1":30.2991,"la2":30.254,"lo1":-89.0895,"lo2":-89.0444,"dy":0.0017,"dx":0.0017,"nx":28,"ny":28,"refTime":"2024-07-15T03:00:00:Z","depth":0,"parameterNumber":3,"parameterNumberName":"V-component_of_WINDS"},"data":[0,0,0,0,0,0,0,0,0,0,0,0,0,0,0,0,0,0,0,0,0,0,0,0,0,0,0,0,0,0,0,0,0,0,0,0,0,0,0,0,0,0,0,0,0,0,0,0,0,0,0,0,0,0,0,0,0,0,4.9621,4.9622,0,4.9704,4.9705,4.9706,4.9674,4.9672,4.9671,4.9669,4.9746,4.975,4.9754,0,0,0,0,0,0,0,0,0,0,0,0,0,4.9427,4.9431,4.9621,4.9622,4.9623,4.9704,4.9705,4.9706,4.9675,4.9672,4.967,4.9668,4.9745,4.9749,4.9754,0,0,0,0,0,0,0,0,0,0,0,0,0,4.9511,4.9432,4.9621,4.9617,4.9618,4.9703,4.9705,4.9706,4.9675,4.9672,4.967,4.9667,4.9744,4.9749,4.9755,4.9846,0,0,4.9772,4.9775,0,0,0,0,0,0,0,0,4.9506,4.9518,4.9617,4.9618,4.9618,4.9676,4.9665,4.9753,4.9676,4.9653,4.9669,4.9666,4.9725,4.9732,4.9753,4.985,4.9853,4.9773,4.9776,4.9779,4.978,0,0,0,0,0,0,0,4.95,4.9514,4.9653,4.9618,4.9619,4.9609,4.9618,4.9681,4.9703,4.9655,4.9653,4.9664,4.9724,4.9748,4.9755,4.9854,4.9773,4.9778,4.9781,4.9783,5.0028,5.0031,0,0,0,0,0,0,4.9495,4.9509,4.9651,4.9656,4.9554,4.9615,4.9624,4.966,4.9703,4.9707,4.9666,4.9662,4.9739,4.9748,4.9757,4.9866,4.9779,4.9784,4.9787,5.0025,5.0028,5.0032,0,0,0,0,0,0,4.9491,4.9508,4.9647,4.9582,4.9599,4.9621,4.9661,4.9663,4.9687,4.9711,4.9714,4.9686,4.9738,4.9749,4.9824,4.9868,4.9786,4.9792,5.0021,5.0026,5.003,5.0084,0,0,0,0,0,0,4.9486,4.9507,4.9544,4.9583,4.9603,4.9716,4.9664,4.9667,4.9697,4.9693,4.9731,4.9734,4.9736,4.9816,4.983,4.9874,4.9796,5.0017,5.0023,5.0028,5.0079,5.009,5.01,0,0,0,0,0,4.9479,4.9555,4.9546,4.9563,4.965,4.9718,4.9729,4.9732,4.9701,4.9737,4.9752,4.9733,4.9861,4.9824,4.984,4.9886,5.0014,5.0021,5.0028,5.0074,5.0088,5.01,0,0,0,0,0,0,4.9517,4.956,4.9551,4.9642,4.9677,4.9713,4.9758,4.9747,4.9789,4.9783,4.9782,4.9791,4.9868,4.9885,4.9842,4.9976,4.9933,4.9943,4.9962,4.9976,4.9986,4.998,4.9801,0,0,0,0,0,4.9537,4.9592,4.9625,4.9702,4.972,4.9736,4.9766,4.9766,4.9801,4.9815,4.9835,4.9868,4.9916,4.9947,4.9992,5.0081,5.0087,5.0121,5.0131,5.014,5.0148,5.0195,5.0209,5.0054,5.0054,5.0054,0,0,4.9577,4.9607,4.9641,4.971,4.9737,4.9791,4.9749,4.9808,4.9847,4.9823,4.9895,4.9912,4.9948,5.003,5.0067,5.0046,5.0193,5.0149,5.0156,5.0159,5.0203,5.0218,5.0231,5.0059,5.0058,5.0057,0,0,4.9676,4.9706,4.9773,4.9801,4.9844,4.9854,4.987,4.9908,4.9919,4.9992,4.9974,5.0019,5.0102,5.0128,5.0152,5.0261,5.0244,5.0276,5.0331,5.0376,5.0388,5.0399,5.0436,5.0449,5.0285,5.0285,5.0285,0,4.972,4.9803,4.9808,4.9869,4.9898,4.9882,4.9947,4.9974,5.0028,5.0047,5.0024,5.0126,5.0149,5.0236,5.0263,5.0284,5.03,5.0271,5.0387,5.0397,5.0407,5.0443,5.0457,5.0288,5.0288,5.0287,5.0287,0,4.9853,4.9911,4.9959,5.0014,5.0049,5.0112,5.0124,5.0159,5.0155,5.0167,5.024,5.0268,5.0317,5.0338,5.0334,5.0424,5.041,5.0387,5.0343,5.0426,5.0458,5.0472,5.0293,5.0292,5.0291,5.029,0,0,4.9978,5.0036,5.0053,5.0077,5.0123,5.0166,5.0227,5.0278,5.0307,5.0344,5.0393,5.0463,5.0442,5.047,5.0468,5.0508,5.059,5.048,5.0481,5.0498,5.0689,5.0704,5.072,5.058,5.0583,5.0585,5.0685,0,5.008,5.019,5.0196,5.0295,5.0346,5.0331,5.0384,5.0416,5.0428,5.0472,5.0484,5.0534,5.0503,5.0519,5.0558,5.0572,5.0628,5.0565,5.0623,5.0625,5.0613,5.0738,5.0755,5.0848,5.0698,5.07,5.0702,0,5.0214,5.0258,5.0363,5.04,5.0422,5.0469,5.0515,5.0559,5.0593,5.0599,5.063,5.0623,5.0682,5.0638,5.0718,5.0675,5.0699,5.0709,5.0713,5.0717,5.0667,5.0743,5.0878,5.0891,5.0722,5.0721,5.0719,0,5.0292,5.0378,5.0451,5.0472,5.0518,5.0551,5.0571,5.0604,5.0634,5.0674,5.0692,5.0738,5.0762,5.0796,5.08,5.0768,5.088,5.0837,5.0884,5.0884,5.0907,5.0905,5.1046,5.0926,5.0925,5.0925,5.0925,0,5.0404,5.0468,5.0487,5.0531,5.0601,5.0607,5.0675,5.0692,5.0721,5.0767,5.0756,5.0798,5.0802,5.0845,5.0848,5.0913,5.0924,5.0929,5.0929,5.0929,5.0928,5.0943,5.0936,5.0929,5.0928,5.0927,5.0927,0,5.0503,5.0519,5.0597,5.0634,5.0645,5.0695,5.0726,5.0767,5.0779,5.0836,5.085,5.0868,5.0918,5.0926,5.0984,5.0986,5.1063,5.1057,5.1052,5.105,5.1096,5.1091,5.125,5.127,5.1139,5.114,5.1141,0,5.0573,5.0622,5.0665,5.0696,5.0719,5.0769,5.08,5.0806,5.0838,5.0882,5.0917,5.0966,5.1006,5.1086,5.1102,5.1146,5.1139,5.1192,5.1146,5.1144,5.1137,5.1134,5.1138,5.12,5.1202,5.1203,5.1204,0,5.0694,5.0699,5.0746,5.0795,5.0833,5.0871,5.0907,5.0932,5.0943,5.0979,5.1031,5.1062,5.1122,5.117,5.1214,5.1231,5.1218,5.1219,5.1231,5.1231,5.1225,5.1227,5.1074,5.1214,5.1213,5.1212,5.1212,5.1211,5.0779,5.0821,5.0859,5.091,5.0939,5.0972,5.1013,5.1031,5.1075,5.1126,5.1127,5.1183,5.1215,5.1273,5.1293,5.1335,5.1318,5.1337,5.1342,5.1346,5.1349,5.1221,5.1343,5.1343,5.1343,5.1343,5.1342,0,5.0898,5.0921,5.0969,5.1021,5.1061,5.1049,5.1088,5.1121,5.1172,5.1204,5.1244,5.1303,5.1349,5.137,5.1415,5.1444,5.1439,5.1456,5.1452,5.1456,5.1363,5.1347,5.1459,5.1459,5.1459,5.1459,5.1459,5.1459,5.0964,5.1035,5.1044,5.1128,5.115,5.1207,5.123,5.1261,5.1286,5.1354,5.1393,5.1407,5.1434,5.148,5.1522,5.1526,5.1542,5.1561,5.1562,5.1475,5.1463,5.1452,5.1436,5.1565,5.1565,5.1651,5.1652,5.1653]}]]